{"data":{"norad_id":67795,"intl_designator":"2026-030AH","name":"KUIPER-00279","alt_names":[],"object_type":"PAYLOAD","status":"ACTIVE","operator":null,"country":"US","launch_date":"2026-02-12","launch_site_code":"FRGUI","launch_vehicle":null,"mission":null,"orbit_class":"UNKNOWN","rcs_meters":null,"size_class":null,"mass_kg":null,"dimensions":null,"purposes":[],"wikipedia_slug":null,"has_3d_model":false,"image_url":null,"decayed_at":null,"tle_current":{"epoch":"2026-09-20T20:25:12.777312Z","epoch_age_seconds":56134,"freshness":"FRESH","line1":"1 67795U 26030AH  26263.85084233 -.00000256  00000+0 -46134-5 0  9994","line2":"2 67795  51.9045  35.1485 0000586 121.1850 238.9170 14.79929598 34564","mean_motion":14.79929598,"eccentricity":5.86e-5,"inclination_deg":51.9045,"raan_deg":35.1485,"arg_perigee_deg":121.185,"mean_anomaly_deg":238.917,"bstar":-4.6134e-6,"rev_number":3456,"period_min":97.301925844718,"perigee_km":629.13571822116,"apogee_km":629.95701871194,"semimajor_km":7007.6833684665,"source":"CELESTRAK","updated_at":"2026-09-21T09:00:16.859333Z"}}}